Location: Bli��� Lhota
(48.7570°N, 14.0120°E)
Time: 05:42:33
(UTC+00:00)

Cosmos 1464 Rocket - Pass Details

Date: 18 September 2020
Orbit: 953 x 1000 km, 82.9° (Epoch: 29 October)

Event Time Altitude Azimuth Distance (km) Brightness Sun altitude
Rises 17:57:50 0° 165° (SSE) 3,616 6.7 -8.7°
Reaches altitude 10° 18:00:24 10° 159° (SSE) 2,676 6.0 -9.1°
Maximum altitude 18:06:08 44° 89° (E) 1,303 4.3 -10.0°
Drops below altitude 10° 18:11:56 10° 20° (NNE) 2,709 6.3 -11.0°
Sets 18:14:33 0° 14° (NNE) 3,666 7.0 -11.4°
